Regional Weather Roundup
Issued by NWS New Orleans/Baton Rouge, LA

Home | Current Version | Previous Version | Text Only | Print | Product List | Glossary On
Versions: 1 2 3 4 5 6 7 8 9 10 11 12 13 14 15 16 17 18 19 20 21 22 23 24 25 26 27 28 29 30 31 32 33 34 35 36 37 38 39 40 41 42 43 44 45 46 47 48 49 50
770
ASUS44 KLIX 231105
RWRLIX
NEW ORLEANS REGIONAL WEATHER ROUNDUP
NATIONAL WEATHER SERVICE NEW ORLEANS LA
500 AM CST SUN NOV 23 2014

NOTE: "FAIR" INDICATES FEW OR NO CLOUDS BELOW 12,000 FEET WITH NO
      SIGNIFICANT WEATHER AND/OR OBSTRUCTIONS TO VISIBILITY.
      SKY/WX - SKY CONDITION AND SIGNIFICANT WEATHER.
      TMP - AIR TEMPERATURE.     DP    - DEWPOINT TEMPERATURE.
      RH  - RELATIVE HUMIDITY.   PRES  - PRESSURE.
      HI  - HEAT INDEX.          WCI   - WIND CHILL INDEX.

*  THESE STATIONS ARE NOT NWS OR FAA STATIONS AND ARE NOT UNDER
   NWS QUALITY CONTROL.

LAZ038-040-048-061>063-065>067-069-231200-
SOUTHEAST LOUISIANA

CITY           SKY/WX    TMP DP  RH WIND       PRES   REMARKS
N.O. AUDUBON     N/A     61  61  99 MISG        N/A
N.O. INTL ARPT LGT RAIN  63  60  90 E12       29.72F FOG
N.O. LAKEFRONT FOG       61  59  93 E10       29.74F VSB 1/2
N.O. DOWNTOWN* CLOUDY    61  57  88 NE9       29.73F
SLIDELL        LGT RAIN  65  63  93 CALM      29.75F FOG
BATON ROUGE    LGT RAIN  64  62  93 E8        29.73F
BOOTHVILLE     CLOUDY    66  66 100 SE8       29.72F
BELLE CHASSE   CLOUDY    63  60  90 NE10      29.70F
BOGALUSA*        N/A     63  60  91 E5        29.77F FOG
NEW ROADS*     LGT RAIN  64  63  97 E9        29.72F
GONZALES*      CLOUDY    63  63 100 E5        29.72F
HAMMOND*       CLOUDY    64  61  88 SE5       29.76F
HOUMA*         LGT RAIN  66  65  98 E6        29.73R
PORT FOURCHON* PTSUNNY   70  68  94 SE13G21   29.71F

$$

MSZ070-080>082-231200-
SOUTHERN MISSISSIPPI

CITY           SKY/WX    TMP DP  RH WIND       PRES   REMARKS
MCCOMB         LGT RAIN  61  59  93 E8        29.75F FOG
GULFPORT       LGT RAIN  64  63  96 E9        29.74F FOG
BILOXI         CLOUDY    64  64 100 NE8       29.75F
PASCAGOULA     CLOUDY    65  65 100 E6        29.76F FOG

$$

COASTAL OBSERVATIONS
LAKE AND NEARSHORE STATIONS

STATION/POSITION TIME  TEMP    WIND        PRES    WAVE
                       AIR SEA DIR/SP/G            HT/PER
                 (UTC) (F)     (DEG/KT/KT) (MB)    (FT/S)
PASCAGOULA       1100   67     100/ 11/ 15 1007.4
WAVELAND YACHT   1100   65     110/ 14/ 17 1006.3
GRAND ISLE       1100   68 62  120/  6/ 11 1006.1
SOUTHWEST PASS   1100   70 72              1006.8
NEW CANAL        1100   62 54   80/  4/  7 1007.3
SHELL BEACH      1100   60 53   60/  7/  8 1006.9

OFFSHORE STATIONS

STATION/POSITION TIME  TEMP    WIND        PRES    WAVE
                       AIR SEA DIR/SP/G            HT/PER
                 (UTC) (F)     (DEG/KT/KT) (MB)    (FT/S)
64 S DAUPHIN ISL 1050   73 72  160/ 10/ 10 1008.9    8/ 8

$$




USA.gov is the U.S. government's official web portal to all federal, state and local government web resources and services.